Flag for Germany Weather past 2 weeks in Heilbronn, Baden-Württemberg, Germany

Now
64 °F

Light freezing rain. Low clouds.


Feels Like: 64 °F
Forecast: 60 / 78 °F
Wind: 2 mph from West

Location: Oehringen

Current Time: Jul 30, 2014 at 7:47:01 AM

Latest Report: Jul 30, 2014 at 7:00 AM


Visibility: 3 mi

Pressure: 29.76 "Hg

Humidity: 98%

Dew point: 63 °F

Location of HeilbronnLocation

Historic Weather in Heilbronn — Graph

°F

Heilbronn temperature yesterday

Maximum temperature yesterday: 75 °F (at 3:00 PM)
Minimum temperature yesterday: 62 °F (at 7:00 AM)
Average temperature yesterday: 66 °F

Past Weeks' High & Low Weather Summary

 TemperatureHumidityPressure
High93 °F (Jul 19, 5:00 PM)98% (Jul 22, 4:00 AM)30.20 "Hg (Jul 22, 4:00 AM)
Low56 °F (Jul 16, 6:00 AM)21% (Jul 19, 5:00 PM)29.72 "Hg (Jul 28, 7:00 PM)
Average71 °F67%29.94 "Hg
* Reported Jul 15 6:00 AM — Jul 30 6:00 AM, Heilbronn, Weather by CustomWeather, © 2014

Note: Actual official high and low records may vary slightly from our data, if they occured in-between our weather recording intervals... More about our weather records

Advertising

Heilbronn weather history for previous 24 hours

 ConditionsComfort  
Time TempWeatherWind HumidityBarometerVisibility
6:00 AM
Jul 30
64 °FRain. Low clouds.3 mph97%29.76 "Hg1 mi
5:00 AM64 °FLow clouds.2 mph97%29.76 "Hg1 mi
4:00 AM64 °FFog.2 mph96%29.76 "Hg1 mi
3:00 AM64 °FFog.2 mph96%29.77 "Hg2 mi
2:00 AM64 °FFog.3 mph96%29.76 "Hg2 mi
1:00 AM64 °FLow clouds.3 mph96%29.77 "Hg2 mi
12:00 AM65 °FDrizzle. Low clouds.2 mph97%29.78 "Hg2 mi
11:00 PM
Jul 29
65 °FLight rain. Low clouds.3 mph97%29.77 "Hg1 mi
10:00 PM65 °FRain. Low clouds.3 mph96%29.78 "Hg1 mi
9:00 PM66 °FRain. Low clouds.3 mph97%29.76 "Hg1 mi
8:00 PM66 °FRain. Low clouds.2 mph95%29.75 "Hg1 mi
7:00 PM68 °FLight rain. Overcast.2 mph88%29.75 "Hg3 mi
6:00 PM71 °FDrizzle. Partly sunny.5 mph74%29.73 "Hg9 mi
5:00 PM73 °FOvercast.6 mph70%29.72 "Hg9 mi
4:00 PM74 °FScattered clouds.6 mph66%29.72 "Hg11 mi
3:00 PM75 °FScattered clouds.3 mph67%29.73 "Hg9 mi
2:00 PM71 °FOvercast.3 mph75%29.76 "Hg6 mi
1:00 PM68 °FOvercast.1 mph82%29.79 "Hg6 mi
12:00 PM66 °FLow clouds.2 mph88%29.79 "Hg6 mi
11:00 AM64 °FFog.3 mph93%29.79 "Hg4 mi
10:00 AM63 °FLow clouds.2 mph94%29.79 "Hg4 mi
9:00 AM63 °FDrizzle. Low clouds.2 mph96%29.79 "Hg2 mi
8:00 AM63 °FLow clouds.2 mph97%29.78 "Hg1 mi
7:00 AM62 °FDrizzle. Low clouds.2 mph97%29.78 "Hg1 mi
Weather by CustomWeather, © 2014

See weather overviewHow to use our weather pages